Hourly Data Report for September 12, 2018

TORONTO CITY
ONTARIO
Current Station Operator: ECCC - MSC

43°40'00.000" N
79°24'00.000" W
112.50 m
6158355
71508
XTO

Download Data

Hourly Data (September 2018)
Hourly Data Report for September 12, 2018
TIME
LST
Temp Definition
°C
Dew Point Definition
°C
Rel Hum Definition
%
Precip. Amount Definition
mm

Wind Dir Definition
10's deg

Wind Spd Definition
km/h
Visibility Definition
km
Stn Press Definition
kPa
Hmdx Definition


Wind Chill Definition


Weather Definition


00:00 16.6 13.0 79 0.0 LegendMM LegendMM   100.97     LegendNANA
01:00 15.6 12.7 83 0.0 LegendMM LegendMM   100.95     LegendNANA
02:00 15.3 12.8 85 0.0 LegendMM LegendMM   100.98     LegendNANA
03:00 14.6 12.6 88 0.0 LegendMM LegendMM   100.98     LegendNANA
04:00 14.4 12.5 88 0.0 LegendMM LegendMM   101.00     LegendNANA
05:00 14.4 12.5 89 0.0 LegendMM LegendMM   101.05     LegendNANA
06:00 14.5 12.6 88 0.0 LegendMM LegendMM   101.12     LegendNANA
07:00 16.3 14.0 86 0.0 LegendMM LegendMM   101.14     LegendNANA
08:00 18.2 14.5 79 0.0 LegendMM LegendMM   101.13     LegendNANA
09:00 19.0 14.6 76 0.0 LegendMM LegendMM   101.17     LegendNANA
10:00 19.6 14.7 73 0.0 LegendMM LegendMM   101.18     LegendNANA
11:00 20.4 14.5 69 0.0 LegendMM LegendMM   101.17     LegendNANA
12:00 21.2 14.2 64 0.0 LegendMM LegendMM   101.17 25   LegendNANA
13:00 22.4 14.5 61 0.0 LegendMM LegendMM   101.14 26   LegendNANA
14:00 22.0 15.0 65 0.0 LegendMM LegendMM   101.11 26   LegendNANA
15:00 22.0 15.3 66 0.0 LegendMM LegendMM   101.06 26   LegendNANA
16:00 21.3 15.0 68 0.0 LegendMM LegendMM   101.04 25   LegendNANA
17:00 21.5 15.4 68 0.0 LegendMM LegendMM   101.03 26   LegendNANA
18:00 20.9 15.6 72 0.0 LegendMM LegendMM   101.04 25   LegendNANA
19:00 19.9 16.2 79 0.0 LegendMM LegendMM   101.04     LegendNANA
20:00 19.7 16.0 79 0.0 LegendMM LegendMM   101.08     LegendNANA
21:00 19.6 16.5 83 0.0 LegendMM LegendMM   101.10     LegendNANA
22:00 19.4 16.6 84 0.0 LegendMM LegendMM   101.08     LegendNANA
23:00 19.1 16.7 86 0.0 LegendMM LegendMM   101.10     LegendNANA

Notes on Data Quality.

Legend

  • E = Estimated
  • M = Missing
  • NA = Not Available*
  • [empty] = Indicates an unobserved value
Date modified: